TimeCST,TemperatureF,Dew PointF,Humidity,Sea Level PressureIn,VisibilityMPH,Wind Direction,Wind SpeedMPH,Gust SpeedMPH,PrecipitationIn,Events,Conditions,WindDirDegrees,DateUTC
12:53 AM,3.0,-0.0,87,30.15,10.0,Calm,Calm,-,N/A,,Clear,0,2013-01-05 06:53:00
1:53 AM,3.9,-0.9,80,30.14,10.0,Calm,Calm,-,N/A,,Clear,0,2013-01-05 07:53:00
2:53 AM,3.0,-2.0,80,30.13,10.0,Calm,Calm,-,N/A,,Clear,0,2013-01-05 08:53:00
3:53 AM,3.0,-2.0,80,30.13,10.0,Calm,Calm,-,N/A,,Clear,0,2013-01-05 09:53:00
4:53 AM,1.9,-2.9,80,30.11,10.0,Calm,Calm,-,N/A,,Clear,0,2013-01-05 10:53:00
5:53 AM,1.0,-4.0,79,30.09,10.0,Calm,Calm,-,N/A,,Clear,0,2013-01-05 11:53:00
6:53 AM,7.0,3.9,87,30.07,10.0,Calm,Calm,-,N/A,,Clear,0,2013-01-05 12:53:00
7:53 AM,14.0,10.0,84,30.03,9.0,SSE,5.8,-,N/A,,Clear,150,2013-01-05 13:53:00
8:53 AM,16.0,10.9,81,30.03,10.0,Calm,Calm,-,N/A,,Clear,0,2013-01-05 14:53:00
9:53 AM,19.9,14.0,78,30.01,10.0,South,8.1,-,N/A,,Clear,170,2013-01-05 15:53:00
10:53 AM,23.0,14.0,68,29.99,10.0,South,6.9,-,N/A,,Clear,180,2013-01-05 16:53:00
11:53 AM,25.0,14.0,63,29.95,10.0,SE,4.6,-,N/A,,Clear,140,2013-01-05 17:53:00
12:53 PM,27.0,15.1,61,29.93,10.0,Calm,Calm,-,N/A,,Clear,0,2013-01-05 18:53:00
1:53 PM,28.0,15.1,58,29.90,10.0,Calm,Calm,-,N/A,,Clear,0,2013-01-05 19:53:00
2:53 PM,28.9,15.1,56,29.89,10.0,Calm,Calm,-,N/A,,Clear,0,2013-01-05 20:53:00
3:53 PM,28.0,15.1,58,29.88,10.0,Calm,Calm,-,N/A,,Clear,0,2013-01-05 21:53:00
5:53 PM,19.9,12.9,74,29.92,8.0,Calm,Calm,-,N/A,,Clear,0,2013-01-05 23:53:00
6:53 PM,15.1,10.9,84,29.94,7.0,Calm,Calm,-,N/A,,Clear,0,2013-01-06 00:53:00
7:53 PM,12.9,9.0,84,29.94,6.0,Calm,Calm,-,N/A,,Clear,0,2013-01-06 01:53:00
8:53 PM,12.0,8.1,84,29.95,5.0,Calm,Calm,-,N/A,,Mostly Cloudy,0,2013-01-06 02:53:00
9:53 PM,18.0,14.0,84,29.94,7.0,Calm,Calm,-,N/A,,Overcast,0,2013-01-06 03:53:00
10:09 PM,19.4,15.8,86,29.88,6.0,Calm,Calm,-,N/A,,Overcast,0,2013-01-06 04:09:00
10:43 PM,19.4,15.8,86,29.89,7.0,Calm,Calm,-,N/A,,Overcast,0,2013-01-06 04:43:00
10:53 PM,21.9,17.1,82,29.96,9.0,Calm,Calm,-,N/A,,Overcast,0,2013-01-06 04:53:00
11:53 PM,24.1,18.0,77,29.95,9.0,Variable,3.5,-,0.00,,Overcast,0,2013-01-06 05:53:00